Location: Sabalos
(43.2860°N, 0.1414°E)
Time: 07:54:11
(UTC+00:00)

Meteor 2-10 Rocket - Pass Details

Date: 05 July 2020
Orbit: 734 x 884 km, 81.2° (Epoch: 14 August)

Event Time Altitude Azimuth Distance (km) Brightness Sun altitude
Rises 21:10:51 0° 344° (NNW) 3,198 8.0 -13.0°
Reaches altitude 10° 21:13:13 10° 338° (NNW) 2,283 7.2 -13.2°
Maximum altitude 21:18:07 48° 266° (W) 1,004 4.4 -13.8°
Drops below altitude 10° 21:23:10 10° 193° (SSW) 2,347 5.7 -14.4°
Enters shadow 21:23:40 - 191° (SSW) 2,537 5.8 -14.4°
